TimeEST,TemperatureF,Dew PointF,Humidity,Sea Level PressureIn,VisibilityMPH,Wind Direction,Wind SpeedMPH,Gust SpeedMPH,PrecipitationIn,Events,Conditions,WindDirDegrees,DateUTC
12:15 AM,32.0,24.8,75,30.49,10.0,ESE,5.8,-,N/A,,Overcast,110,2013-02-08 05:15:00
12:35 AM,32.0,23.0,69,30.49,10.0,East,9.2,-,N/A,,Overcast,90,2013-02-08 05:35:00
12:55 AM,32.0,23.0,69,30.47,10.0,East,8.1,-,N/A,,Overcast,100,2013-02-08 05:55:00
1:15 AM,32.0,24.8,75,30.47,10.0,East,10.4,-,N/A,,Overcast,90,2013-02-08 06:15:00
1:35 AM,32.0,24.8,75,30.46,10.0,East,9.2,-,N/A,,Overcast,80,2013-02-08 06:35:00
1:55 AM,32.0,24.8,75,30.45,10.0,East,9.2,-,N/A,,Overcast,80,2013-02-08 06:55:00
2:15 AM,32.0,24.8,75,30.45,10.0,East,8.1,-,N/A,,Overcast,90,2013-02-08 07:15:00
2:35 AM,32.0,26.6,80,30.44,10.0,East,11.5,-,N/A,,Overcast,90,2013-02-08 07:35:00
2:55 AM,32.0,26.6,80,30.42,10.0,East,11.5,-,N/A,,Overcast,90,2013-02-08 07:55:00
3:15 AM,32.0,26.6,80,30.42,10.0,East,12.7,-,N/A,,Overcast,80,2013-02-08 08:15:00
3:35 AM,32.0,26.6,80,30.40,10.0,East,15.0,20.7,N/A,,Overcast,90,2013-02-08 08:35:00
3:55 AM,32.0,26.6,80,30.39,10.0,East,15.0,23.0,N/A,,Overcast,90,2013-02-08 08:55:00
4:35 AM,32.0,26.6,80,30.39,10.0,East,13.8,21.9,N/A,,Overcast,90,2013-02-08 09:35:00
4:55 AM,32.0,26.6,80,30.38,10.0,East,9.2,20.7,N/A,,Overcast,100,2013-02-08 09:55:00
5:15 AM,32.0,26.6,80,30.38,10.0,East,13.8,25.3,N/A,,Overcast,90,2013-02-08 10:15:00
5:35 AM,32.0,26.6,80,30.37,10.0,East,17.3,21.9,N/A,,Overcast,90,2013-02-08 10:35:00
5:55 AM,32.0,26.6,80,30.36,10.0,East,13.8,25.3,N/A,,Overcast,90,2013-02-08 10:55:00
6:15 AM,32.0,26.6,80,30.36,10.0,East,12.7,24.2,N/A,,Overcast,90,2013-02-08 11:15:00
6:35 AM,32.0,26.6,80,30.35,10.0,East,16.1,21.9,N/A,,Overcast,90,2013-02-08 11:35:00
6:55 AM,32.0,26.6,80,30.35,10.0,East,12.7,23.0,N/A,,Overcast,90,2013-02-08 11:55:00
7:15 AM,33.8,26.6,75,30.36,10.0,East,15.0,21.9,N/A,,Overcast,90,2013-02-08 12:15:00
7:35 AM,33.8,26.6,75,30.35,10.0,East,16.1,23.0,N/A,,Overcast,80,2013-02-08 12:35:00
7:55 AM,33.8,26.6,75,30.34,10.0,East,16.1,23.0,N/A,,Overcast,80,2013-02-08 12:55:00
8:15 AM,33.8,26.6,75,30.33,10.0,East,12.7,24.2,N/A,,Overcast,90,2013-02-08 13:15:00
8:35 AM,33.8,28.4,81,30.33,10.0,East,18.4,23.0,N/A,,Overcast,90,2013-02-08 13:35:00
8:55 AM,33.8,28.4,81,30.31,10.0,East,12.7,24.2,N/A,,Overcast,90,2013-02-08 13:55:00
9:15 AM,33.8,28.4,81,30.30,10.0,East,15.0,24.2,N/A,,Overcast,90,2013-02-08 14:15:00
9:35 AM,33.8,30.2,87,30.30,3.0,East,19.6,28.8,N/A,Rain,Light Rain,80,2013-02-08 14:35:00
9:55 AM,33.8,30.2,87,30.29,3.0,East,15.0,25.3,N/A,Snow,Light Snow,80,2013-02-08 14:55:00
10:15 AM,33.8,32.0,93,30.28,2.0,East,15.0,25.3,N/A,,Overcast,80,2013-02-08 15:15:00
10:35 AM,33.8,32.0,93,30.26,1.8,East,18.4,25.3,N/A,Snow,Light Snow,80,2013-02-08 15:35:00
10:55 AM,33.8,32.0,93,30.24,1.5,East,12.7,24.2,N/A,Snow,Light Snow,80,2013-02-08 15:55:00
11:15 AM,33.8,32.0,93,30.22,1.2,East,18.4,24.2,N/A,Snow,Light Snow,80,2013-02-08 16:15:00
11:35 AM,33.8,32.0,93,30.20,1.5,East,17.3,26.5,N/A,Snow,Light Snow,80,2013-02-08 16:35:00
11:55 AM,33.8,32.0,93,30.18,1.2,East,18.4,25.3,N/A,Snow,Light Snow,80,2013-02-08 16:55:00
12:15 PM,33.8,32.0,93,30.16,1.0,East,20.7,29.9,N/A,Snow,Light Snow,80,2013-02-08 17:15:00
12:35 PM,33.8,32.0,93,30.15,1.0,ENE,19.6,27.6,N/A,Snow,Light Snow,70,2013-02-08 17:35:00
12:55 PM,33.8,32.0,93,30.14,1.0,East,15.0,25.3,0.01,Snow,Light Snow,80,2013-02-08 17:55:00
1:15 PM,33.8,32.0,93,30.12,0.8,ENE,17.3,24.2,0.01,Snow,Light Snow,70,2013-02-08 18:15:00
1:35 PM,33.8,32.0,93,30.09,1.0,ENE,19.6,27.6,0.01,Snow,Light Snow,70,2013-02-08 18:35:00
1:55 PM,33.8,32.0,93,30.07,1.0,ENE,19.6,29.9,0.02,Snow,Light Snow,70,2013-02-08 18:55:00
2:15 PM,33.8,32.0,93,30.05,1.0,ENE,25.3,38.0,0.01,,Overcast,60,2013-02-08 19:15:00
2:35 PM,33.8,32.0,93,30.04,1.0,ENE,23.0,34.5,0.02,,Overcast,70,2013-02-08 19:35:00
2:55 PM,33.8,33.8,100,30.03,1.2,ENE,24.2,34.5,0.03,Snow,Light Snow,60,2013-02-08 19:55:00
3:15 PM,33.8,33.8,100,30.01,1.0,ENE,24.2,32.2,0.01,Snow,Light Snow,60,2013-02-08 20:15:00
3:35 PM,33.8,33.8,100,29.97,1.0,NE,28.8,44.9,0.02,,Overcast,50,2013-02-08 20:35:00
3:55 PM,33.8,33.8,100,29.96,0.8,NE,27.6,41.4,0.03,,Overcast,50,2013-02-08 20:55:00
4:15 PM,33.8,33.8,100,29.93,1.0,NE,25.3,41.4,0.01,,Overcast,50,2013-02-08 21:15:00
4:35 PM,33.8,33.8,100,29.92,0.8,NE,26.5,42.6,0.01,Snow,Light Snow,50,2013-02-08 21:35:00
4:55 PM,33.8,32.0,93,29.90,0.5,NE,28.8,38.0,0.02,Snow,Light Snow,50,2013-02-08 21:55:00
5:15 PM,33.8,32.0,93,29.89,0.8,NE,31.1,42.6,0.01,Snow,Light Snow,40,2013-02-08 22:15:00
5:35 PM,33.8,32.0,93,29.88,0.5,NE,29.9,40.3,0.02,Snow,Light Snow,40,2013-02-08 22:35:00
5:55 PM,33.8,32.0,93,29.87,0.8,NE,24.2,38.0,0.03,Snow,Light Snow,40,2013-02-08 22:55:00
6:15 PM,33.8,33.8,100,29.85,0.8,NE,24.2,35.7,0.01,Snow,Light Snow,40,2013-02-08 23:15:00
6:35 PM,33.8,33.8,100,29.83,0.8,NE,24.2,40.3,0.02,Snow,Light Snow,40,2013-02-08 23:35:00
6:55 PM,33.8,33.8,100,29.80,0.8,NE,29.9,42.6,0.04,Snow,Light Snow,40,2013-02-08 23:55:00
7:15 PM,33.8,32.0,93,29.77,0.5,NNE,24.2,36.8,0.01,,Overcast,30,2013-02-09 00:15:00
7:35 PM,33.8,32.0,93,29.75,0.5,NNE,24.2,39.1,0.02,,Overcast,30,2013-02-09 00:35:00
7:55 PM,33.8,32.0,93,29.74,0.2,NNE,20.7,35.7,0.02,,Overcast,30,2013-02-09 00:55:00
8:55 PM,33.8,32.0,93,29.63,0.2,NNE,25.3,35.7,0.02,,Overcast,20,2013-02-09 01:55:00
9:15 PM,33.8,32.0,93,29.64,0.2,NNE,23.0,42.6,N/A,,Overcast,20,2013-02-09 02:15:00
9:35 PM,33.8,32.0,93,29.64,0.2,NNE,25.3,35.7,0.01,,Overcast,20,2013-02-09 02:35:00
9:55 PM,32.0,32.0,100,29.63,0.2,NNE,20.7,35.7,0.01,,Overcast,20,2013-02-09 02:55:00
10:15 PM,32.0,32.0,100,29.59,0.2,North,21.9,36.8,0.01,,Overcast,10,2013-02-09 03:15:00
10:35 PM,-9999,-9999,N/A,-9999,-9999.0,North,-9999.0,-,0.01,,Unknown,0,2013-02-09 03:35:00
10:55 PM,-9999,-9999,N/A,-9999,-9999.0,North,-9999.0,-,0.01,,Unknown,0,2013-02-09 03:55:00
11:15 PM,-9999,-9999,N/A,-9999,-9999.0,North,-9999.0,-,N/A,,Unknown,0,2013-02-09 04:15:00
11:35 PM,-9999,-9999,N/A,-9999,-9999.0,North,-9999.0,-,N/A,,Unknown,0,2013-02-09 04:35:00
11:55 PM,-9999,-9999,N/A,-9999,-9999.0,North,-9999.0,-,N/A,,Unknown,0,2013-02-09 04:55:00